Regional Weather Roundup
Issued by NWS

Home | Current Version | Previous Version | Graphics & Text | Print | Product List | Glossary On
Versions: 1 2 3 4 5 6 7 8 9 10 11 12 13 14 15 16 17 18 19 20 21 22 23 24 25 26 27 28 29 30 31 32 33 34 35 36 37 38 39 40 41 42 43 44 45 46 47 48 49 50
913
ASUS43 KLMK 280610
RWRKY
KENTUCKY REGIONAL WEATHER ROUNDUP
NATIONAL WEATHER SERVICE LOUISVILLE KY
200 AM EDT TUE MAR 28 2017

NOTE "FAIR" INDICATES FEW OR NO CLOUDS BELOW 12,000 FEET
WITH NO SIGNIFICANT WEATHER AND/OR OBSTRUCTIONS TO VISIBILITY.

KYZ001>023-026-027-061>063-070>075-280700-
WESTERN AND SOUTH CENTRAL KENTUCKY

CITY           SKY/WX    TMP DP  RH WIND       PRES   REMARKS
PADUCAH        CLOUDY    54  51  90 W3        29.90R
HENDERSON      CLOUDY    54  48  82 W5        29.85S
OWENSBORO      CLOUDY    57  54  89 W7        29.86S
HOPKINSVILLE   FOG       52  52 100 CALM      29.88R VSB 1/4
BOWLING GREEN  CLOUDY    58  56  93 W3        29.88R
GLASGOW        CLOUDY   N/A N/A N/A CALM      29.87S
$$

KYZ024-025-028>034-038-045-046-053-280700-
NORTH CENTRAL KENTUCKY

CITY           SKY/WX    TMP DP  RH WIND       PRES   REMARKS
LOUISVILLE/SDF CLOUDY    58  53  84 SW5       29.84F
LOUISVILLE/LOU CLOUDY    57  54  89 CALM      29.85F
FORT KNOX      PTCLDY    52  52 100 SW5       29.83F FOG
$$

KYZ035>037-039>044-047>052-055>060-089>105-280700-
NORTHEAST KENTUCKY

CITY           SKY/WX    TMP DP  RH WIND       PRES   REMARKS
LEXINGTON      MOCLDY    56  53  90 S3        29.86S
COVINGTON      CLOUDY    56  55  97 S7        29.83F
FRANKFORT      CLOUDY    57  53  86 SW3       29.84F
$$

KYZ054-064>069-076>088-106>120-280700-
SOUTHEAST KENTUCKY

CITY           SKY/WX    TMP DP  RH WIND       PRES   REMARKS
JACKSON        CLOUDY    55  53  93 VRB3      29.86F
LONDON         CLOUDY    56  53  90 SE5       29.86F
SOMERSET       MOCLDY    55  55 100 CALM      29.88R
MIDDLESBORO    CLOUDY    57  56  97 S5        29.92S
MONTICELLO     CLEAR     54  51  90 NW8       29.88R
$$





USA.gov is the U.S. government's official web portal to all federal, state and local government web resources and services.